Terminal Aerodrome Forecast
Issued by NWS Pittsburgh, PA

Current Version | Previous Version | Text Only | Print | Product List | Glossary Off
Versions: 1 2 3 4 5 6 7 8 9 10 11 12 13 14 15 16 17 18 19 20 21 22 23 24 25 26 27 28

706
FTUS41 KPBZ 061132
TAFPIT
TAF
KPIT 061132Z 0612/0718 20005KT P6SM BKN060
     FM061500 24010KT P6SM SCT060 BKN150
     FM070100 VRB03KT P6SM SCT200=

USA.gov is the U.S. government's official web portal to all federal, state and local government web resources and services.